Wind_Speed
26 26 32 38 38 36 35 35 32 27 22 23 24 23 23 26 25 24 28 24 21 31 32 27 27 22 21 22 27 27 26 26 24 21 24 27 25 24 22 20 17 17 16 16 17 19 18 17 18 18 20 20 18 17 19 21 22 21 20 20 20 20 20 20 20 21 21 20 19 18 18 17 16 16 15 13 12 12 12 11 11 10 10 10 9 8
26 32 39 41 36 32 30 31 30 27 25 26 27 26 23 25 26 23 25 26 22 29 32 29 29 26 23 23 28 32 30 30 28 24 28 30 27 26 25 20 18 17 18 20 19 21 21 19 19 19 20 21 19 17 18 21 22 21 21 21 21 20 20 19 19 19 19 18 17 16 16 16 16 16 15 14 12 11 11 10 10 10 10 10 9 9
30 40 43 37 32 30 27 27 30 29 28 29 29 30 28 25 24 24 24 25 23 28 31 30 30 28 26 24 28 35 33 32 32 29 28 29 26 27 27 22 18 18 21 23 22 22 22 21 22 21 20 20 19 17 18 20 23 23 22 22 22 21 21 20 18 18 18 18 17 16 16 16 16 16 15 15 14 12 11 10 11 11 11 10 10 9
36 41 40 33 29 29 29 28 29 30 30 31 31 31 32 29 25 23 24 24 22 26 28 27 28 29 29 26 29 34 33 33 34 31 28 27 26 24 22 21 19 18 20 22 23 24 24 24 23 22 21 20 19 19 19 20 23 24 23 22 22 21 22 21 19 18 18 18 18 18 18 18 17 17 16 16 16 15 13 12 11 12 12 11 11 10
40 33 27 30 31 29 31 31 30 31 33 33 33 32 32 32 28 25 23 22 22 24 26 26 27 31 33 30 30 32 33 36 36 33 31 29 27 23 19 20 19 17 16 19 23 24 25 26 24 21 20 20 19 19 18 19 22 23 23 22 21 20 21 21 20 19 19 20 21 21 21 22 21 20 19 18 16 16 14 13 12 12 11 11 11 11
41 30 18 22 31 32 32 33 33 33 33 34 35 34 33 31 30 28 25 22 23 24 29 31 21 22 33 33 32 33 33 37 38 36 36 32 29 28 23 21 20 18 14 14 20 23 24 26 25 23 22 20 18 17 16 17 20 21 21 21 21 20 19 20 21 21 21 21 22 22 22 22 21 20 17 15 14 14 13 12 13 12 12 11 11 11
40 34 23 20 27 32 34 35 35 34 32 33 34 35 34 32 30 30 29 25 22 20 26 35 21 13 27 32 30 32 33 36 39 38 38 36 32 31 27 23 23 21 16 13 16 21 24 26 26 24 22 19 15 14 15 17 20 21 21 21 21 20 19 19 21 22 22 22 22 22 22 21 19 17 15 14 14 13 13 13 14 14 13 12 11 11
38 35 32 27 27 32 36 37 35 35 35 32 30 30 33 34 32 31 30 28 24 20 19 35 34 19 23 32 29 29 31 32 38 43 41 39 36 31 28 27 25 22 18 15 14 17 22 25 26 24 20 18 15 14 15 17 20 21 21 21 21 21 20 19 21 22 22 22 22 22 21 20 19 17 16 16 15 13 14 15 15 15 14 13 12 11
34 36 36 32 31 33 36 38 34 34 36 32 25 24 28 31 32 33 32 30 28 23 18 27 36 21 17 31 31 28 31 29 34 45 46 42 39 34 32 30 26 21 19 17 13 12 16 22 25 23 19 19 18 16 15 15 18 19 20 21 22 22 21 21 21 22 23 23 22 22 21 20 19 18 17 17 17 15 14 15 15 15 15 14 13 12
28 32 33 33 35 35 34 33 32 32 34 31 25 23 24 26 30 31 31 33 30 21 18 20 27 16 11 28 34 29 31 29 30 41 46 43 40 37 35 33 28 23 21 20 15 11 12 16 21 22 21 22 21 19 16 17 18 19 21 21 22 23 22 22 21 22 23 23 23 22 22 21 20 19 18 18 18 16 15 15 14 14 15 15 14 13
27 25 27 33 36 35 31 28 29 31 31 29 26 26 25 24 27 29 31 34 25 14 20 26 24 16 9 24 37 35 33 30 29 36 42 43 41 39 37 34 30 26 23 21 18 14 12 14 19 23 24 24 23 21 21 20 20 20 21 21 22 23 23 23 22 22 23 23 23 22 22 22 20 20 20 18 17 16 15 14 13 12 14 14 14 13
31 26 27 32 33 32 30 28 28 28 29 29 27 28 25 21 23 25 28 30 16 6 21 31 27 21 12 16 33 39 38 32 29 34 41 42 41 41 40 36 33 29 25 22 19 17 17 18 20 24 25 25 25 25 23 23 23 22 21 21 21 22 23 23 23 23 23 24 24 23 22 22 21 21 20 18 16 16 14 13 12 11 12 13 13 12
35 37 32 28 29 32 31 30 29 28 31 32 30 30 22 12 12 14 13 16 11 10 22 27 24 22 18 17 25 33 37 32 26 32 41 42 40 41 41 39 36 32 28 24 21 19 20 21 22 24 25 26 26 26 24 22 22 22 21 21 21 21 22 23 24 24 24 25 25 24 23 22 22 22 21 19 17 17 15 14 13 11 10 11 11 10
32 36 37 33 30 33 35 34 31 32 34 35 35 33 23 9 5 6 5 5 7 14 24 25 21 20 21 26 27 25 30 30 23 25 34 38 39 40 41 40 37 34 30 26 22 21 22 22 22 23 24 25 26 25 24 22 21 21 21 21 21 21 21 23 24 24 24 25 25 24 24 23 23 23 22 20 18 18 17 15 14 12 10 10 10 9
24 25 38 43 34 31 37 37 32 31 34 37 37 34 31 22 10 4 5 4 2 7 20 25 19 15 20 30 32 24 24 28 23 20 26 31 33 37 41 40 37 33 29 26 23 21 23 24 22 23 23 25 26 24 22 21 21 21 21 21 22 21 22 23 24 25 25 25 25 25 25 24 24 24 23 21 20 19 19 17 15 13 11 10 10 10
25 26 35 40 35 29 33 37 32 28 31 36 36 33 34 34 21 6 6 10 6 1 10 22 23 21 21 26 30 27 25 29 25 21 26 31 31 32 38 41 38 34 31 28 23 20 23 25 23 23 24 25 26 24 21 20 19 20 20 21 21 22 22 23 23 24 24 24 25 25 25 25 25 24 24 23 22 20 19 18 16 14 12 11 11 12
25 27 27 30 36 35 30 34 36 31 28 31 37 38 35 34 29 15 7 12 11 2 8 18 23 28 28 24 24 25 27 32 32 29 30 34 35 35 38 42 39 37 35 28 21 19 24 26 24 24 25 25 26 25 21 18 16 17 18 19 20 22 23 24 24 24 23 24 25 26 26 26 25 25 25 24 22 21 20 19 18 16 15 14 13 12
22 25 24 25 35 38 33 31 35 35 30 30 38 41 31 25 30 24 9 8 9 4 9 21 25 27 27 25 25 27 29 33 36 35 30 31 39 42 41 42 40 38 34 28 22 20 24 26 24 24 26 25 24 23 21 19 17 17 17 18 20 21 23 23 23 23 24 25 26 26 27 26 26 25 24 24 23 22 22 21 20 18 16 15 14 14
29 23 22 28 33 36 36 33 36 38 36 32 34 37 31 22 25 27 14 5 7 3 6 19 27 28 29 31 32 32 33 34 36 37 34 32 40 46 43 41 41 38 33 28 23 22 26 26 24 24 25 24 23 23 23 22 21 19 18 18 18 19 20 21 23 24 25 26 26 26 26 26 26 25 25 24 24 24 24 23 21 19 18 16 15 15
39 25 18 26 33 35 37 38 40 43 41 36 30 34 38 29 24 28 21 11 6 3 4 11 15 19 26 33 35 32 31 34 34 35 38 39 38 40 41 43 44 39 32 26 22 22 27 27 23 22 23 24 24 24 25 24 23 21 19 18 17 17 19 21 23 25 25 26 26 26 26 26 26 26 26 25 25 25 25 23 22 21 19 18 17 16
38 36 25 26 31 36 41 43 44 45 45 42 35 34 39 33 25 25 25 23 14 3 2 5 5 12 20 26 31 31 28 31 33 32 35 41 41 38 37 41 45 39 29 23 20 22 28 29 24 21 20 21 22 23 25 25 23 22 21 20 19 18 19 20 21 23 24 24 25 26 27 27 27 27 27 26 26 26 25 24 24 22 21 20 18 17
15 28 32 33 29 32 43 46 45 44 45 45 39 33 36 36 29 18 15 26 28 14 6 4 4 9 14 18 26 29 27 28 33 31 30 36 41 40 36 39 43 37 26 23 22 23 28 29 25 22 20 21 22 23 25 25 24 23 22 21 21 21 20 20 20 21 21 22 24 25 26 27 27 27 27 27 27 26 25 25 25 24 23 22 20 19
12 16 27 35 34 28 35 41 42 41 41 44 40 33 33 37 37 23 11 20 28 23 19 13 7 7 8 10 22 29 25 24 29 29 26 29 35 37 37 39 42 35 24 22 24 23 26 29 27 25 22 22 24 24 24 25 24 23 22 22 23 23 22 20 19 19 19 21 22 24 25 27 28 28 29 29 28 27 26 26 25 25 25 23 21 20
7 13 18 27 34 33 31 36 43 42 39 41 43 38 34 35 38 31 19 20 25 24 22 13 5 6 8 4 16 26 21 23 28 25 20 24 28 31 35 39 38 32 22 21 24 24 24 27 27 26 24 24 24 23 22 23 23 23 24 24 24 24 23 21 19 19 19 20 21 23 25 27 29 30 30 30 29 28 27 26 26 26 26 24 23 22
12 10 10 12 16 21 22 25 36 44 42 41 42 43 39 33 34 32 25 21 20 24 25 12 3 9 7 6 18 21 19 24 26 18 17 24 26 27 33 35 33 27 22 21 24 25 26 28 27 26 26 27 25 23 21 20 21 22 24 25 25 25 24 23 22 21 21 20 20 22 25 27 29 30 31 31 30 28 27 27 26 26 26 25 24 23
17 14 12 9 5 7 7 7 20 40 45 39 38 42 41 35 32 33 30 23 16 20 28 21 9 11 13 10 17 19 19 23 20 15 19 23 23 25 31 33 31 28 26 24 24 25 28 30 28 27 29 29 26 22 20 19 19 21 23 25 26 26 26 26 25 24 23 22 21 22 24 26 28 29 30 30 30 29 28 27 27 26 26 26 25 24
13 15 16 14 13 13 9 4 11 35 45 38 33 37 41 41 35 32 33 27 18 18 26 27 19 15 18 17 14 14 16 18 17 17 22 23 24 27 30 32 32 30 28 27 25 26 28 30 29 29 29 29 25 22 20 19 19 20 21 24 26 27 27 28 28 27 25 24 23 23 23 25 26 27 28 29 29 29 28 27 27 26 26 26 25 25
15 15 14 14 16 20 17 8 7 23 40 44 37 33 37 43 40 34 34 32 24 17 20 25 23 18 21 21 17 15 14 14 16 20 22 20 24 30 30 30 34 32 29 30 29 27 28 30 30 28 27 27 25 22 20 19 18 19 20 22 24 26 28 29 29 28 27 26 25 24 23 23 24 25 26 27 28 28 28 28 27 27 26 25 25 24
20 14 12 14 14 17 20 14 8 8 21 35 39 36 34 40 45 40 33 33 31 21 15 21 24 19 18 20 18 15 15 15 18 22 20 17 23 32 28 24 30 35 34 34 32 29 29 31 30 27 25 26 25 22 21 21 19 18 19 21 22 24 26 27 29 29 29 28 27 25 24 23 23 24 25 26 27 28 28 27 27 26 26 25 24 23
23 18 15 16 12 11 17 20 13 9 7 16 31 39 37 35 43 44 33 29 31 27 19 20 22 18 16 18 18 15 14 17 22 23 20 17 21 27 25 21 28 36 37 36 34 32 31 31 30 28 25 25 25 23 22 22 21 19 19 20 21 23 24 25 28 29 30 29 27 26 25 24 24 24 24 25 26 26 27 26 26 26 25 24 24 23
24 24 21 20 14 7 15 22 16 12 10 7 17 31 35 33 37 44 40 30 26 27 24 20 19 17 17 19 19 16 16 22 26 23 20 19 18 18 21 27 33 37 36 35 33 33 32 31 30 29 27 26 25 24 23 22 21 20 20 20 20 21 22 23 25 27 29 29 28 27 27 26 25 25 24 25 25 26 26 26 26 25 25 24 24 23
24 26 25 26 20 7 10 20 16 11 10 10 9 18 27 26 27 39 44 36 27 27 26 22 22 20 16 17 20 20 23 26 27 25 24 25 23 19 21 30 37 38 36 34 32 32 32 31 31 31 29 28 26 25 25 24 23 23 22 21 20 19 20 20 20 22 25 27 29 29 29 29 28 27 26 25 26 26 26 26 27 26 26 25 24 23
22 25 27 28 22 12 2 9 15 10 9 10 11 15 24 20 17 32 44 38 28 26 28 24 20 19 18 20 26 27 26 29 30 29 29 29 26 22 22 26 33 35 32 30 30 29 29 30 31 31 30 30 28 26 26 25 26 26 24 23 22 20 19 18 17 17 19 22 26 28 30 30 30 30 29 27 26 26 26 27 28 28 27 26 25 24
18 21 23 23 19 14 8 1 10 9 6 6 9 15 22 13 7 22 39 40 30 23 27 27 20 22 24 25 29 30 26 26 28 29 31 33 28 24 25 26 27 26 23 21 20 22 25 28 30 30 29 29 28 27 27 27 28 28 26 24 23 21 19 18 16 15 15 17 20 23 26 29 31 32 31 30 28 27 27 28 28 28 28 27 26 25
19 21 22 21 19 16 12 6 2 4 5 7 14 17 15 5 3 15 29 33 31 25 25 29 25 23 21 21 27 30 22 20 21 22 27 29 26 26 29 28 26 21 18 16 16 17 20 21 22 24 24 24 25 25 26 27 28 28 27 26 24 22 20 18 16 14 13 13 15 17 21 24 27 30 32 32 32 30 30 30 29 29 29 28 27 26
16 17 19 20 16 13 11 6 1 4 5 9 19 15 6 5 8 18 18 13 17 24 26 30 30 24 17 18 27 31 26 19 19 22 23 21 22 26 28 29 29 22 16 15 15 15 18 19 20 23 22 22 23 23 23 24 25 26 26 26 25 23 21 19 17 15 14 13 13 14 16 18 21 24 28 32 34 33 32 31 31 30 30 29 28 27
13 13 15 16 12 12 15 11 4 3 2 7 11 5 1 1 9 14 13 18 15 17 18 27 36 30 22 23 27 29 30 24 20 24 23 20 24 28 23 23 26 20 13 13 13 12 15 16 18 21 21 21 21 22 22 23 23 24 24 25 25 24 22 21 19 17 16 15 14 13 14 16 17 19 22 27 31 33 34 34 32 32 31 30 30 29
10 12 12 13 10 12 16 11 2 1 2 4 6 5 1 2 8 14 13 19 21 21 19 26 36 31 25 25 25 26 29 27 23 22 21 19 22 26 23 21 21 18 14 15 14 12 13 13 13 16 17 18 19 19 20 21 22 23 23 23 24 23 23 22 21 19 18 17 16 15 15 15 17 19 19 21 25 29 33 35 34 33 33 32 32 31
14 13 10 11 13 13 12 9 3 1 4 11 10 3 2 2 12 17 12 19 21 23 23 25 30 30 28 26 24 24 25 24 22 19 19 19 19 23 26 25 20 16 15 17 17 16 15 15 15 15 15 17 18 18 19 19 20 22 22 22 23 23 23 22 21 21 20 19 18 18 17 16 18 20 19 19 20 24 28 33 35 35 35 34 33 33
17 17 14 12 14 12 10 10 6 5 7 11 10 1 6 7 15 15 9 14 18 23 21 21 24 25 27 27 25 24 23 23 24 22 21 22 21 23 26 26 21 17 16 18 19 20 20 19 19 19 19 20 21 22 22 21 21 21 22 22 23 23 23 22 21 21 21 20 21 21 20 19 19 21 21 20 20 21 23 27 32 35 37 36 35 34
16 17 18 17 15 12 11 11 7 7 8 10 9 4 9 12 10 11 11 9 14 18 16 20 23 23 24 26 28 28 26 26 27 25 22 23 23 23 24 24 24 23 21 20 20 20 20 20 21 22 24 25 26 27 28 27 25 25 24 25 25 25 24 23 23 22 23 23 24 24 24 22 21 23 23 22 22 21 22 24 27 31 34 36 37 36
15 13 15 18 18 15 13 11 7 7 9 10 7 1 10 12 12 17 16 14 13 13 15 20 24 24 24 26 30 32 30 28 27 24 22 22 23 25 26 25 24 25 25 23 21 21 21 22 22 23 24 26 28 30 30 30 29 28 28 28 27 26 26 25 25 25 25 25 26 27 27 26 24 24 24 24 24 23 24 24 25 27 30 33 36 37
14 12 14 18 18 15 11 7 4 5 8 10 7 2 5 10 16 17 17 15 13 13 16 20 23 24 23 25 30 33 31 28 26 24 23 22 23 25 27 26 24 22 22 22 21 22 23 24 23 22 21 23 26 30 32 33 32 31 31 30 29 29 29 29 29 29 28 28 28 29 29 28 27 25 25 26 26 26 26 26 26 27 28 30 33 35
8 6 9 14 13 10 6 4 7 5 9 12 7 12 15 14 11 12 15 15 14 13 12 17 21 22 22 24 27 28 29 29 29 27 25 24 25 25 25 25 24 21 18 18 20 23 24 24 24 23 22 22 24 27 31 33 33 33 32 32 31 31 31 31 32 32 31 30 28 28 29 29 28 27 26 27 28 28 28 29 29 29 29 30 32 34
2 3 6 8 9 8 3 7 10 6 4 6 8 15 13 7 4 10 13 14 14 13 12 14 19 21 22 24 25 24 25 27 28 28 26 24 25 25 24 25 25 23 21 21 21 24 25 25 25 24 23 23 24 25 27 30 32 32 32 31 31 31 30 30 31 31 31 30 28 27 27 28 28 28 28 28 29 30 30 32 32 31 31 31 32 33
7 5 6 8 9 12 14 8 2 4 4 3 5 8 4 2 7 10 10 10 12 13 12 12 16 20 23 25 25 25 25 23 23 24 24 23 23 24 24 25 27 29 30 29 27 27 28 28 27 26 24 23 23 23 25 27 29 30 30 30 31 32 32 32 32 31 31 31 29 27 27 27 28 28 29 29 30 31 31 32 33 34 33 33 33 34
6 5 7 8 8 11 12 9 6 10 11 7 4 3 3 8 13 15 12 10 11 12 12 10 11 15 19 22 24 25 26 25 24 24 24 25 26 26 27 28 29 31 31 29 28 29 29 30 29 28 26 24 23 23 23 25 27 29 29 30 30 31 32 32 32 32 31 30 29 28 28 28 28 29 30 30 30 30 30 30 32 34 35 35 35 36
6 7 8 10 12 13 11 6 7 12 17 14 10 8 9 12 16 19 17 15 14 12 12 11 10 10 13 16 19 21 23 24 25 26 27 28 28 27 27 26 26 24 23 22 23 24 25 26 27 27 26 24 24 23 22 23 25 28 29 30 30 29 28 28 29 30 30 29 28 27 27 28 28 29 31 31 30 28 27 28 30 32 34 35 36 37
8 9 10 13 16 18 17 12 10 16 20 16 10 10 13 16 18 19 20 20 18 15 13 12 11 10 10 12 14 16 17 19 21 24 24 23 22 21 21 20 18 16 15 16 17 18 19 21 23 24 24 23 23 23 22 22 23 25 28 29 28 26 25 25 26 27 28 28 27 26 26 27 28 29 30 30 29 27 26 26 28 29 31 33 35 35
11 11 12 14 17 20 18 12 10 15 18 13 7 8 13 18 19 20 21 22 22 20 14 10 8 8 9 10 12 14 14 16 19 21 20 17 14 13 15 14 12 11 11 12 13 14 14 16 18 20 22 22 22 22 22 22 22 23 25 26 26 25 24 23 24 25 26 26 26 25 25 25 26 26 27 27 27 27 27 26 27 27 28 30 31 32
12 13 13 14 18 21 19 14 12 16 19 16 12 11 15 20 23 25 26 27 27 26 23 19 15 12 11 11 12 14 14 14 17 19 19 15 11 10 11 11 10 9 9 11 12 12 12 12 13 16 18 20 21 22 22 22 22 22 23 25 25 24 24 23 23 23 24 25 25 24 23 23 23 22 22 22 22 23 24 24 24 24 24 25 26 27
Wind_Direction
200 206 213 214 216 215 214 214 215 219 217 216 223 226 219 219 227 231 231 234 221 195 188 195 200 211 227 204 183 184 183 183 193 192 183 193 207 212 220 225 219 212 202 195 198 205 210 211 209 206 207 212 214 208 202 205 215 216 210 210 208 206 213 216 212 209 204 199 196 195 194 193 192 191 191 192 193 191 184 179 182 182 181 183 186 191
206 213 217 214 215 215 216 218 216 217 218 222 231 236 231 221 221 229 235 238 226 202 192 193 200 208 217 210 190 185 191 196 203 206 200 206 219 222 225 223 210 206 203 198 196 201 209 215 213 210 209 211 215 215 207 206 214 218 214 213 212 208 212 219 217 213 208 201 198 195 193 192 192 194 194 196 199 202 196 185 187 191 186 187 192 194
210 219 219 214 215 214 215 219 218 218 219 225 233 240 246 238 229 230 235 244 232 204 194 192 198 205 208 215 202 191 201 211 216 221 217 216 223 221 221 216 202 202 204 201 198 199 205 212 215 212 210 211 214 217 214 209 211 218 218 216 216 212 212 218 218 215 210 204 200 197 195 194 194 196 199 202 205 209 208 194 193 199 193 191 196 198
211 223 221 213 214 214 214 216 216 219 221 225 230 238 245 243 241 238 231 243 238 208 198 197 202 208 209 216 213 204 210 218 219 221 219 219 219 214 216 214 206 206 209 206 202 200 203 210 214 212 210 210 211 213 214 210 210 215 219 218 219 216 214 217 218 216 211 204 201 197 196 197 199 200 203 207 209 213 214 203 200 204 200 197 200 203
214 225 223 212 213 214 215 214 214 217 220 223 226 230 239 239 240 244 236 235 236 222 208 202 204 209 209 212 212 210 214 216 215 214 212 215 216 212 217 218 211 212 218 217 211 205 204 209 214 212 210 211 212 211 209 211 213 215 217 220 221 221 218 218 218 218 213 205 200 198 198 199 200 203 207 210 212 216 216 208 208 210 206 205 207 210
218 222 226 218 211 212 216 215 213 214 218 222 223 223 229 236 238 244 249 238 228 225 211 201 202 206 207 210 210 209 213 212 210 208 206 209 211 209 215 218 209 206 211 217 218 214 209 209 213 211 209 210 211 210 206 208 214 216 217 218 220 222 221 220 220 219 216 209 202 201 202 203 204 206 211 216 218 222 223 213 212 216 213 212 215 217
221 217 220 225 214 210 214 217 215 214 218 222 222 221 223 231 238 242 253 255 239 233 213 200 201 203 200 209 216 213 215 215 210 207 206 207 208 208 215 218 207 200 201 207 214 216 213 211 211 210 208 207 205 203 203 205 211 215 216 215 217 220 220 220 221 220 218 213 207 205 206 208 211 213 216 223 224 225 227 220 214 218 219 216 216 218
221 216 214 220 218 213 213 217 216 212 219 224 221 223 224 228 236 239 250 260 256 259 235 203 202 210 201 203 212 215 219 221 214 209 207 206 207 212 222 221 209 202 203 208 213 215 215 213 213 212 205 201 198 197 199 201 206 212 214 214 214 216 218 219 221 222 221 218 213 209 211 212 215 215 215 221 226 224 225 224 217 217 222 217 213 213
219 217 212 213 218 216 215 217 216 213 218 223 219 220 226 229 234 238 246 257 260 265 260 213 200 205 205 201 204 210 220 227 215 208 208 209 209 214 221 220 212 205 202 209 216 219 221 218 217 214 204 199 200 195 192 196 201 206 213 216 215 215 215 215 219 223 222 222 218 214 215 216 218 220 216 217 223 221 219 223 218 214 219 218 212 212
221 224 216 211 217 220 220 220 217 216 218 220 219 218 224 229 232 236 242 253 261 262 266 238 206 203 210 201 202 204 212 222 218 211 210 212 213 214 216 217 215 206 201 207 212 218 230 226 221 218 208 204 206 200 194 196 197 201 207 213 216 216 214 213 215 220 223 224 222 217 216 217 219 223 222 219 220 220 216 220 218 211 215 219 215 215
224 230 223 216 218 219 223 224 218 217 216 215 218 222 227 229 227 230 235 246 260 260 258 256 237 241 241 198 203 207 206 209 214 215 212 209 213 216 213 215 219 214 207 207 207 212 222 220 218 219 213 209 210 207 201 199 197 198 203 208 213 216 216 215 213 216 221 224 224 220 218 218 219 223 226 223 221 222 219 220 222 214 212 219 219 215
226 228 225 221 220 217 220 223 218 215 214 212 215 220 228 232 224 220 223 231 246 253 250 255 253 260 265 208 209 211 207 206 211 219 218 212 213 216 213 215 220 218 211 207 208 213 218 215 210 211 212 210 210 209 203 197 196 197 200 204 209 214 216 216 214 214 218 222 224 223 220 220 219 222 227 225 221 224 223 222 224 218 210 215 220 215
227 227 225 223 222 216 215 219 214 208 209 210 211 214 218 226 223 214 208 217 229 237 242 251 256 258 261 248 229 214 206 210 215 218 223 222 217 217 217 217 218 216 210 207 211 217 219 220 213 207 207 207 207 209 203 195 195 195 196 200 205 210 213 216 215 212 214 218 221 223 222 222 221 222 227 225 220 221 223 222 221 218 207 205 215 215
224 227 225 224 223 215 212 215 208 200 202 206 209 209 203 196 205 206 201 210 226 230 231 240 254 255 251 250 244 225 209 214 220 215 222 229 224 222 223 219 215 212 210 210 216 223 222 222 219 210 206 204 204 206 202 196 196 194 194 198 201 206 210 214 216 213 213 215 218 221 222 222 222 223 225 224 220 219 221 222 219 216 208 198 199 201
220 223 221 219 220 216 212 212 208 200 200 204 207 207 205 206 204 182 201 198 166 219 220 222 234 245 243 239 240 241 222 216 220 214 223 234 227 225 225 217 210 210 216 225 232 234 226 221 220 213 207 205 203 202 199 198 199 197 195 197 199 202 206 212 216 214 213 213 215 218 220 220 221 222 224 224 221 219 221 223 219 215 211 201 190 188
225 229 226 219 216 217 214 211 208 204 201 202 206 210 211 211 210 206 217 204 180 137 213 211 220 230 241 244 241 245 236 221 217 217 229 236 229 225 221 212 211 217 226 236 239 233 223 219 220 215 209 207 204 201 199 199 203 202 198 197 198 200 205 210 215 216 215 214 214 216 218 219 220 221 223 224 222 220 221 223 222 218 213 207 197 191
229 234 232 222 216 215 215 211 207 205 202 197 201 211 214 209 211 219 216 197 194 237 228 218 225 227 232 242 238 233 232 226 220 222 234 236 229 225 218 209 212 221 228 235 232 220 215 216 220 217 211 208 206 205 201 198 201 202 199 197 198 200 204 207 210 214 216 217 217 217 218 219 220 221 223 223 223 222 222 223 222 220 215 210 206 202
241 245 232 220 216 212 209 210 208 208 207 199 200 207 207 201 212 223 220 182 190 217 221 218 225 224 221 228 229 222 223 226 223 221 225 224 214 208 207 208 214 224 229 231 226 214 210 213 217 216 211 207 206 207 206 201 197 197 196 197 199 203 207 209 209 211 214 217 219 219 219 219 219 221 223 224 225 224 224 224 223 222 220 216 212 210
243 258 239 220 218 211 206 206 206 209 211 209 204 202 198 194 205 214 215 193 194 204 215 214 219 222 218 219 224 222 219 221 224 220 216 213 206 200 203 210 216 223 227 225 223 212 204 207 210 211 209 204 201 205 209 209 203 198 194 194 199 204 209 212 212 212 213 214 217 219 220 222 221 221 223 224 225 225 225 225 224 224 224 222 218 215
237 253 255 227 217 208 205 204 203 205 208 212 208 197 199 205 205 204 207 211 206 195 216 215 215 222 225 225 226 226 218 214 219 222 214 211 212 211 211 215 214 216 221 223 225 214 201 201 203 203 205 202 198 201 208 212 208 202 197 193 196 201 205 210 213 214 215 214 216 217 218 220 221 221 222 223 225 226 226 227 227 226 226 226 225 222
235 241 253 244 220 202 201 205 204 202 201 207 209 195 193 203 208 205 208 214 220 240 206 214 225 227 231 235 234 226 212 204 209 217 214 208 212 215 216 219 216 213 219 225 230 221 204 199 199 197 200 202 201 203 207 210 210 206 202 199 197 200 204 208 211 214 217 217 217 218 217 218 219 220 221 222 224 226 226 227 228 227 227 227 227 228
259 242 243 250 238 206 201 205 206 203 200 204 210 201 191 194 196 194 200 208 217 236 239 223 265 245 238 245 237 218 200 199 203 209 211 206 208 212 210 216 218 214 216 223 227 223 208 200 200 197 196 202 204 204 203 206 208 206 204 203 202 204 206 208 210 211 213 216 218 219 219 219 219 220 221 222 224 225 225 226 227 227 227 228 227 229
310 248 235 246 248 228 212 207 206 204 201 203 210 209 199 194 193 193 189 193 204 223 241 253 273 269 284 268 228 209 196 200 202 202 208 206 208 212 209 213 217 213 214 220 219 217 207 202 204 200 196 200 202 199 199 202 205 204 203 204 205 207 208 209 211 212 212 213 215 216 218 218 219 220 221 222 224 224 224 226 227 227 228 228 228 229
276 229 231 245 247 246 234 212 203 202 200 202 209 212 206 199 197 200 198 189 194 207 225 247 262 246 306 329 192 194 192 193 193 196 203 203 208 215 214 214 213 208 210 215 211 211 208 205 207 204 199 200 199 194 194 199 203 204 203 204 206 208 209 210 212 214 215 214 213 214 216 217 218 220 221 223 224 223 224 225 226 228 229 228 228 229
316 255 261 266 247 248 242 210 192 192 196 202 207 210 212 208 200 200 202 201 200 202 206 217 255 233 250 98 139 164 181 184 185 188 191 196 207 215 210 206 203 205 213 214 209 211 210 205 205 204 200 198 196 191 190 196 202 204 203 204 206 208 209 211 213 216 218 217 216 215 216 217 218 220 221 223 224 224 223 224 226 227 228 228 228 229
309 277 276 285 252 232 239 208 184 186 192 202 206 207 212 214 204 196 200 208 205 197 202 211 223 206 196 159 133 135 152 166 172 181 185 192 206 210 203 201 204 211 215 213 211 214 213 207 203 202 199 197 196 193 192 197 203 206 205 204 205 206 207 211 213 216 218 219 219 219 218 219 219 219 221 222 224 224 223 224 225 226 227 228 229 231
307 288 274 267 264 264 276 303 203 190 188 195 205 206 208 214 213 198 196 208 209 191 197 209 212 186 180 191 179 152 152 160 165 179 188 194 201 200 199 203 207 209 207 208 212 214 214 211 204 202 200 198 199 200 199 202 207 210 210 207 206 205 206 210 213 216 218 219 221 221 220 222 222 222 222 223 224 224 224 224 225 225 226 227 229 232
345 320 288 276 272 269 268 276 240 202 190 189 199 206 205 208 214 208 198 202 207 197 196 207 208 184 172 185 194 189 185 178 176 186 192 195 196 194 198 205 205 202 200 201 206 210 212 210 205 206 207 205 205 207 208 209 211 213 214 211 209 208 208 209 213 216 218 219 221 221 220 221 223 224 225 225 225 225 225 225 226 226 226 227 229 231
0 341 317 309 290 266 253 245 265 244 194 187 195 206 208 204 209 215 207 197 203 209 201 200 204 197 186 188 189 182 174 171 181 194 198 191 186 190 197 205 202 199 197 197 200 204 207 207 207 211 214 210 208 207 210 214 214 213 214 212 211 212 211 211 214 218 220 220 221 221 221 221 223 225 226 226 227 226 226 226 227 228 228 227 228 230
4 345 350 347 322 279 250 229 235 279 241 189 192 203 211 207 204 212 213 200 200 208 208 203 204 204 193 178 170 167 173 183 186 187 189 186 184 191 198 201 198 197 195 192 194 199 203 205 209 216 221 217 212 210 211 215 214 211 211 211 211 212 213 213 215 218 221 222 222 222 222 222 223 225 226 227 227 227 227 228 228 229 230 230 229 230
9 346 353 1 350 294 238 222 230 274 270 212 186 197 209 212 203 206 214 212 200 197 202 194 177 175 173 163 160 159 162 175 176 164 157 157 160 174 186 189 190 191 189 187 190 197 202 204 208 215 222 223 222 220 218 217 218 215 212 212 212 213 215 216 217 220 223 225 225 224 223 224 224 224 225 226 228 228 227 228 229 230 231 231 231 231
7 350 356 2 351 324 225 221 238 283 275 247 218 193 201 212 204 200 210 217 205 191 193 181 159 158 165 167 174 167 145 147 157 152 143 139 138 147 168 179 182 183 183 185 189 196 200 204 209 214 220 224 227 227 224 222 222 219 213 212 214 216 218 220 220 221 223 226 228 227 225 225 225 226 226 226 227 228 228 229 230 230 231 232 232 234
358 347 353 357 339 329 345 221 239 285 304 270 255 207 196 205 205 198 204 213 210 193 190 185 164 156 163 168 172 165 141 132 141 145 145 143 140 142 154 168 177 180 182 187 192 197 201 206 211 214 216 220 225 227 226 225 223 220 216 215 218 220 217 215 216 218 219 222 227 229 228 227 226 226 227 227 227 227 228 229 230 230 231 232 232 234
355 340 341 350 332 318 353 300 240 276 313 264 240 197 186 195 220 199 197 205 212 202 189 187 166 146 153 159 158 152 133 123 133 140 146 150 148 139 142 157 170 176 180 185 192 200 205 210 212 212 213 217 224 229 229 227 224 220 218 218 218 217 211 206 208 213 215 217 220 225 228 228 228 228 228 229 229 228 229 228 229 230 231 232 232 233
337 330 326 333 327 321 350 30 211 280 309 235 207 177 168 204 238 168 173 190 207 210 196 187 170 151 153 153 151 154 140 118 124 134 144 155 156 142 139 147 154 157 163 170 177 187 193 198 199 200 203 209 215 220 220 219 217 216 216 217 215 213 209 205 205 211 219 221 219 220 222 225 227 229 229 230 229 229 230 230 229 230 231 232 233 233
318 324 328 329 330 334 354 24 188 293 312 217 199 184 178 260 188 146 125 132 182 202 205 191 176 171 171 155 149 160 163 141 121 125 139 158 167 157 148 147 147 147 154 166 175 180 181 186 190 191 194 196 199 202 203 205 207 209 211 214 213 211 210 208 209 214 223 230 230 228 225 222 223 225 227 229 230 230 230 230 230 231 231 233 235 235
300 302 323 334 345 351 341 334 316 309 295 202 204 209 27 141 162 143 89 66 110 161 187 183 179 179 171 153 145 155 169 162 132 126 138 156 173 176 170 159 158 164 176 179 183 187 185 192 201 202 201 201 201 202 201 200 202 205 208 212 212 211 211 212 216 220 226 235 242 244 240 231 224 222 222 225 230 232 232 231 231 232 233 234 236 238
279 279 301 314 322 337 336 329 325 173 293 325 320 310 5 129 178 160 109 74 92 112 124 152 167 166 152 146 145 150 161 159 140 136 149 159 175 186 187 180 178 187 197 193 194 196 184 183 198 205 207 207 207 209 210 208 208 208 209 213 214 215 217 219 223 228 233 240 246 250 252 244 232 226 221 221 226 231 232 231 231 232 234 236 237 239
264 269 284 293 290 305 321 316 297 252 340 354 349 310 106 126 194 174 108 59 74 95 108 131 147 149 147 150 153 149 149 147 140 150 169 174 179 187 191 196 198 198 201 202 205 209 205 203 210 217 220 218 217 220 223 225 225 220 216 216 217 220 223 226 229 235 239 244 247 249 253 251 242 234 226 220 222 227 230 231 231 232 234 236 237 239
259 263 263 270 274 285 293 287 303 352 349 347 351 41 135 158 185 169 92 49 71 89 106 130 139 144 152 158 162 157 150 147 147 157 173 179 178 182 190 200 205 204 206 208 209 214 217 219 223 228 230 229 228 228 230 235 239 235 229 224 222 222 225 228 231 235 239 244 247 248 250 250 247 241 233 224 222 225 227 229 230 232 234 236 237 238
246 254 253 258 263 271 279 275 295 350 337 335 7 68 166 180 164 119 93 85 87 90 114 139 136 136 146 159 167 164 157 157 158 160 170 176 175 179 188 196 201 207 213 214 212 213 215 218 224 229 231 232 232 231 231 233 237 238 236 233 229 226 226 228 229 232 236 243 248 251 251 250 248 247 241 231 226 226 227 229 232 233 235 236 237 239
228 239 243 251 257 263 277 287 303 333 325 323 352 65 189 174 113 96 107 114 110 119 141 141 129 125 138 159 170 167 161 162 162 160 167 174 177 184 190 192 196 204 211 215 216 217 218 220 224 228 231 233 233 231 230 230 231 233 236 236 234 231 231 231 232 233 236 241 247 250 251 250 248 249 247 239 231 225 225 228 233 235 236 238 238 239
213 221 234 240 248 262 281 307 332 351 348 335 335 43 115 102 95 107 123 126 138 161 157 146 140 132 133 152 168 170 168 166 165 167 173 178 183 190 194 194 196 202 210 215 217 217 218 218 219 224 230 233 233 231 229 228 228 230 233 236 237 236 236 236 238 239 239 241 244 248 250 250 248 249 250 246 238 229 223 225 230 234 236 239 240 241
198 216 253 239 235 263 294 49 78 60 16 0 24 71 65 61 88 130 142 140 160 180 163 152 156 150 144 151 164 172 173 171 173 178 184 187 192 198 203 204 205 210 220 225 223 223 224 222 221 226 231 233 235 234 230 227 227 227 230 235 238 240 240 240 241 242 242 241 242 246 249 250 249 249 250 250 244 235 226 222 226 231 234 237 239 241
17 4 307 249 227 248 246 95 83 70 37 24 59 80 75 65 130 158 157 152 166 181 175 167 169 168 166 166 167 173 178 178 180 186 192 196 200 206 211 212 214 227 245 250 241 234 234 232 231 234 236 236 238 240 235 230 228 228 229 233 237 240 241 242 243 243 242 240 241 246 249 250 249 249 250 250 247 241 231 224 224 229 232 235 238 240
336 315 280 255 241 239 226 205 256 280 209 145 86 80 79 230 209 188 175 162 164 168 167 173 178 179 182 183 181 183 186 188 193 198 203 207 210 214 222 227 234 247 259 261 251 242 241 242 241 241 240 237 238 242 240 233 229 228 229 232 235 238 239 241 242 243 243 241 242 247 251 251 251 251 251 251 249 245 238 230 227 229 232 235 238 240
329 282 265 264 256 244 228 208 226 253 244 224 190 174 228 240 229 217 202 179 171 164 156 159 171 180 187 192 193 195 197 201 208 212 215 221 227 232 238 244 249 254 259 259 252 247 248 250 249 246 243 239 238 242 243 238 231 229 230 232 236 239 241 242 243 243 242 241 242 246 250 252 252 252 252 250 248 246 242 236 233 233 235 237 240 243
305 283 277 270 258 254 251 217 198 232 246 250 245 242 250 251 244 234 220 201 188 175 162 161 165 172 183 191 196 201 205 208 213 217 222 229 236 241 245 249 252 255 259 261 259 256 256 256 253 247 243 240 240 241 243 242 237 232 230 233 237 241 243 244 244 243 240 237 237 241 247 251 252 252 251 250 248 246 243 240 238 238 239 241 244 246
281 285 291 283 267 257 253 243 227 232 238 242 250 256 252 251 252 249 236 223 213 199 180 170 171 175 179 183 191 199 202 203 207 213 218 224 231 236 239 243 247 249 254 258 258 258 258 256 253 248 243 240 240 241 242 243 241 237 233 234 237 241 242 241 241 239 235 232 232 236 241 246 250 251 252 252 250 247 245 244 244 244 245 246 248 250
268 277 287 289 281 269 259 252 248 246 241 231 220 235 243 244 249 253 250 244 238 233 223 209 202 201 199 193 192 197 199 196 196 201 206 210 215 222 227 232 238 242 244 245 246 250 254 253 251 248 244 240 239 240 241 242 241 239 236 235 236 237 236 235 235 235 233 232 232 235 239 243 248 251 252 252 252 250 249 248 248 250 251 252 253 254
269 269 267 270 273 266 254 242 240 248 247 236 224 233 244 244 244 248 249 249 248 248 248 247 245 242 239 231 219 212 208 203 200 201 203 206 214 227 233 237 245 256 258 253 250 250 255 257 255 250 247 244 241 240 239 240 241 240 238 236 236 234 232 231 231 232 234 235 237 238 241 244 247 249 250 251 251 252 252 252 253 255 257 257 257 256
Height
3112 3114 3111 3108 3109 3113 3116 3119 3122 3126 3129 3129 3129 3130 3132 3132 3133 3133 3131 3131 3135 3136 3137 3140 3143 3145 3146 3149 3149 3146 3144 3145 3150 3156 3158 3159 3160 3160 3161 3162 3165 3166 3168 3169 3170 3171 3172 3172 3174 3175 3177 3178 3179 3181 3184 3186 3187 3189 3191 3193 3194 3196 3198 3199 3200 3202 3203 3205 3207 3209 3210 3212 3214 3215 3216 3218 3219 3220 3222 3223 3224 3225 3226 3227 3228 3228
3111 3108 3102 3103 3109 3114 3117 3119 3122 3125 3127 3127 3127 3127 3129 3130 3130 3130 3128 3128 3133 3134 3134 3137 3140 3142 3144 3146 3146 3144 3143 3142 3145 3150 3154 3155 3156 3157 3158 3160 3162 3164 3166 3167 3168 3169 3170 3171 3172 3173 3175 3176 3177 3180 3182 3184 3186 3187 3189 3191 3193 3195 3196 3198 3200 3202 3203 3205 3206 3208 3210 3212 3213 3215 3216 3217 3219 3220 3221 3223 3223 3224 3225 3226 3227 3228
3106 3099 3096 3103 3110 3113 3116 3118 3121 3122 3124 3125 3124 3124 3124 3126 3127 3128 3127 3126 3130 3131 3131 3133 3136 3138 3141 3144 3144 3140 3139 3140 3140 3144 3148 3150 3152 3154 3155 3157 3159 3161 3163 3165 3166 3167 3168 3169 3171 3171 3172 3174 3175 3178 3180 3182 3184 3186 3187 3189 3191 3193 3195 3197 3199 3201 3203 3204 3206 3208 3210 3211 3213 3214 3215 3217 3218 3219 3220 3222 3223 3224 3225 3225 3226 3227
3096 3090 3095 3105 3109 3111 3114 3115 3118 3119 3121 3122 3122 3123 3121 3122 3124 3124 3125 3124 3126 3129 3129 3130 3133 3135 3137 3140 3141 3138 3137 3137 3138 3140 3144 3147 3149 3151 3153 3155 3157 3158 3160 3162 3163 3165 3166 3167 3168 3169 3170 3172 3173 3175 3177 3180 3182 3184 3185 3188 3189 3192 3194 3196 3198 3200 3202 3204 3205 3207 3209 3210 3212 3213 3214 3215 3216 3217 3219 3221 3222 3223 3224 3225 3226 3227
3090 3090 3097 3104 3106 3108 3110 3112 3114 3116 3117 3118 3119 3120 3119 3119 3120 3120 3123 3124 3124 3126 3127 3128 3130 3131 3133 3136 3138 3138 3136 3135 3136 3139 3141 3143 3146 3149 3151 3153 3155 3155 3157 3159 3161 3162 3164 3165 3166 3167 3168 3170 3171 3173 3175 3178 3180 3182 3184 3186 3188 3190 3193 3195 3197 3199 3201 3202 3204 3205 3207 3208 3209 3211 3212 3213 3215 3216 3218 3219 3221 3222 3223 3224 3225 3226
3089 3093 3098 3100 3102 3105 3106 3108 3110 3111 3114 3115 3114 3116 3117 3118 3118 3117 3119 3122 3122 3121 3122 3125 3126 3127 3129 3131 3133 3135 3135 3133 3133 3136 3137 3140 3144 3147 3149 3151 3153 3154 3155 3157 3159 3160 3162 3163 3164 3165 3166 3168 3170 3171 3173 3176 3178 3180 3182 3185 3187 3189 3191 3194 3196 3198 3199 3201 3202 3204 3205 3206 3208 3210 3211 3213 3214 3216 3217 3219 3220 3221 3222 3223 3224 3225
3087 3093 3097 3097 3098 3101 3103 3104 3105 3108 3110 3110 3110 3114 3115 3116 3117 3116 3115 3118 3118 3117 3118 3120 3122 3123 3125 3127 3130 3132 3133 3132 3130 3132 3134 3136 3140 3143 3145 3148 3150 3151 3153 3154 3157 3158 3159 3161 3162 3163 3164 3166 3168 3170 3172 3174 3176 3178 3180 3183 3185 3187 3190 3192 3194 3196 3198 3199 3201 3203 3204 3206 3208 3209 3211 3213 3214 3215 3216 3217 3219 3219 3220 3222 3223 3224
3084 3090 3093 3094 3096 3097 3098 3099 3101 3105 3106 3105 3109 3113 3113 3114 3114 3114 3114 3114 3115 3116 3116 3115 3116 3119 3120 3122 3126 3128 3130 3130 3127 3128 3131 3133 3135 3138 3141 3144 3147 3148 3149 3151 3153 3155 3157 3158 3159 3160 3162 3165 3167 3168 3170 3172 3174 3176 3178 3180 3183 3185 3188 3190 3192 3194 3196 3198 3200 3202 3203 3205 3207 3208 3210 3212 3213 3214 3215 3216 3217 3218 3219 3220 3221 3222
3081 3084 3087 3091 3093 3093 3093 3094 3098 3102 3103 3104 3109 3111 3112 3113 3112 3112 3112 3112 3113 3114 3112 3112 3113 3115 3116 3118 3122 3124 3126 3127 3125 3123 3126 3129 3131 3135 3137 3140 3144 3146 3147 3148 3149 3151 3153 3155 3157 3159 3161 3163 3165 3166 3168 3170 3172 3174 3176 3178 3180 3183 3185 3188 3190 3192 3195 3197 3199 3201 3202 3204 3205 3207 3209 3210 3211 3212 3213 3214 3215 3217 3218 3219 3220 3221
3081 3081 3085 3088 3088 3088 3090 3093 3097 3100 3101 3104 3108 3109 3110 3111 3111 3112 3111 3110 3112 3110 3107 3109 3112 3112 3113 3114 3116 3119 3121 3124 3124 3121 3122 3126 3129 3131 3134 3137 3141 3144 3145 3146 3148 3149 3151 3153 3155 3157 3160 3161 3163 3164 3166 3168 3170 3172 3174 3176 3178 3180 3183 3185 3188 3191 3193 3195 3197 3199 3200 3202 3204 3205 3207 3208 3209 3211 3212 3213 3214 3216 3216 3217 3218 3219
3079 3081 3084 3084 3084 3087 3090 3092 3095 3097 3100 3103 3105 3106 3107 3109 3109 3110 3109 3110 3110 3105 3103 3106 3109 3110 3110 3109 3110 3113 3114 3118 3122 3121 3118 3122 3126 3128 3130 3134 3137 3140 3143 3144 3146 3148 3150 3152 3154 3156 3157 3159 3161 3162 3164 3165 3167 3170 3172 3174 3176 3178 3180 3183 3186 3188 3191 3193 3195 3197 3199 3201 3202 3204 3205 3207 3208 3209 3210 3212 3213 3214 3215 3216 3217 3218
3078 3079 3079 3079 3081 3085 3088 3089 3091 3094 3098 3101 3102 3103 3104 3105 3106 3106 3107 3109 3106 3102 3102 3103 3106 3108 3107 3106 3107 3107 3109 3113 3118 3118 3115 3117 3122 3124 3127 3129 3133 3137 3140 3142 3144 3146 3148 3150 3152 3153 3155 3157 3158 3159 3161 3163 3165 3167 3169 3171 3174 3175 3178 3180 3183 3186 3188 3191 3192 3195 3197 3199 3201 3202 3203 3205 3207 3208 3209 3210 3212 3213 3214 3215 3215 3216
3074 3073 3074 3077 3079 3081 3084 3086 3087 3090 3094 3096 3098 3101 3102 3102 3103 3103 3103 3102 3100 3100 3103 3104 3105 3104 3102 3103 3105 3106 3109 3111 3113 3115 3113 3114 3118 3121 3124 3127 3130 3134 3137 3139 3141 3143 3145 3147 3149 3150 3151 3153 3155 3156 3158 3161 3162 3164 3166 3169 3171 3173 3176 3178 3181 3183 3186 3188 3190 3193 3195 3197 3199 3200 3202 3203 3205 3207 3208 3209 3210 3211 3213 3214 3214 3215
3069 3069 3072 3073 3073 3075 3078 3080 3081 3084 3088 3091 3093 3095 3097 3097 3099 3100 3099 3098 3099 3100 3102 3105 3105 3100 3099 3101 3102 3105 3109 3110 3111 3113 3111 3112 3116 3119 3121 3125 3128 3131 3134 3136 3138 3140 3142 3145 3147 3148 3149 3151 3152 3154 3156 3158 3160 3162 3164 3166 3169 3171 3174 3176 3179 3181 3184 3186 3189 3191 3193 3195 3197 3198 3200 3202 3204 3205 3206 3207 3209 3210 3211 3213 3213 3214
3064 3064 3062 3063 3067 3070 3073 3075 3078 3081 3084 3086 3088 3091 3091 3090 3092 3095 3095 3096 3098 3099 3100 3105 3102 3096 3095 3097 3099 3104 3107 3107 3109 3111 3110 3109 3112 3116 3118 3122 3126 3128 3130 3133 3135 3138 3140 3142 3145 3146 3147 3149 3150 3152 3154 3156 3158 3160 3161 3163 3166 3169 3171 3174 3176 3179 3181 3184 3187 3189 3191 3193 3195 3196 3198 3200 3202 3204 3205 3206 3207 3208 3210 3211 3212 3213
3061 3057 3056 3061 3065 3068 3069 3072 3077 3080 3081 3083 3087 3088 3085 3085 3089 3092 3093 3094 3096 3097 3097 3099 3096 3093 3095 3096 3098 3103 3105 3105 3107 3109 3110 3107 3108 3113 3115 3118 3122 3124 3127 3130 3133 3136 3138 3140 3142 3144 3146 3147 3148 3150 3151 3154 3156 3157 3159 3161 3164 3167 3169 3171 3174 3177 3180 3182 3185 3186 3188 3190 3192 3194 3196 3198 3200 3202 3203 3205 3206 3207 3209 3210 3211 3212
3058 3054 3057 3062 3063 3064 3067 3070 3074 3075 3076 3079 3082 3080 3080 3086 3090 3091 3092 3092 3095 3097 3096 3095 3093 3093 3096 3095 3097 3100 3101 3103 3104 3106 3107 3104 3104 3108 3110 3114 3118 3120 3124 3128 3131 3133 3135 3137 3139 3141 3144 3145 3147 3148 3150 3152 3154 3156 3157 3159 3162 3164 3167 3169 3171 3174 3178 3180 3182 3184 3186 3188 3190 3192 3194 3196 3198 3200 3202 3203 3204 3206 3207 3208 3209 3211
3055 3053 3055 3058 3057 3059 3064 3068 3071 3073 3073 3073 3073 3075 3082 3088 3090 3090 3090 3090 3093 3095 3092 3090 3089 3090 3091 3090 3093 3096 3096 3098 3099 3101 3104 3103 3101 3103 3106 3110 3113 3117 3122 3126 3129 3131 3133 3135 3137 3139 3141 3143 3145 3147 3148 3151 3153 3155 3156 3158 3160 3162 3164 3167 3169 3172 3175 3177 3180 3182 3184 3187 3189 3191 3193 3195 3197 3199 3200 3201 3203 3204 3206 3207 3208 3209
3053 3051 3051 3053 3053 3056 3062 3065 3066 3068 3070 3069 3070 3075 3080 3082 3083 3085 3086 3086 3090 3091 3087 3085 3085 3084 3084 3083 3086 3089 3089 3092 3094 3097 3101 3102 3100 3100 3104 3107 3110 3115 3119 3122 3125 3127 3129 3133 3135 3137 3139 3141 3144 3146 3148 3150 3152 3153 3155 3157 3159 3161 3163 3165 3167 3170 3172 3174 3177 3180 3183 3185 3187 3189 3191 3193 3195 3196 3197 3199 3201 3203 3204 3206 3207 3208
3050 3049 3047 3047 3049 3053 3057 3058 3058 3060 3064 3067 3070 3072 3075 3077 3078 3080 3081 3081 3084 3085 3084 3082 3080 3078 3078 3078 3079 3081 3083 3087 3090 3092 3095 3099 3099 3099 3102 3105 3108 3112 3116 3119 3122 3124 3126 3130 3132 3135 3137 3140 3142 3144 3146 3149 3150 3152 3153 3155 3157 3159 3161 3163 3165 3167 3169 3172 3174 3177 3180 3182 3185 3187 3189 3191 3192 3194 3196 3198 3199 3201 3203 3204 3205 3206
3045 3046 3044 3041 3045 3047 3047 3047 3048 3052 3057 3061 3064 3066 3068 3073 3076 3077 3079 3079 3080 3081 3080 3080 3078 3074 3074 3074 3073 3075 3079 3082 3086 3088 3091 3094 3096 3097 3100 3102 3104 3109 3113 3116 3119 3122 3124 3127 3130 3133 3135 3138 3140 3142 3144 3146 3148 3150 3152 3154 3156 3157 3159 3160 3162 3164 3167 3170 3172 3175 3177 3180 3182 3184 3186 3188 3190 3192 3194 3196 3197 3199 3201 3202 3204 3205
3041 3042 3040 3037 3039 3041 3039 3041 3046 3050 3054 3056 3059 3061 3064 3068 3071 3073 3075 3075 3077 3078 3076 3077 3076 3071 3071 3071 3069 3072 3075 3077 3082 3085 3088 3092 3093 3094 3098 3100 3102 3107 3111 3114 3117 3120 3123 3125 3127 3130 3133 3135 3137 3139 3142 3144 3146 3148 3150 3152 3154 3156 3157 3158 3160 3162 3164 3167 3170 3172 3175 3178 3180 3182 3184 3186 3187 3189 3192 3193 3195 3197 3199 3200 3202 3203
3037 3038 3037 3034 3034 3037 3039 3042 3045 3049 3054 3057 3058 3059 3061 3063 3065 3066 3068 3070 3074 3076 3075 3075 3074 3070 3068 3066 3064 3067 3072 3074 3079 3083 3086 3090 3091 3092 3097 3099 3101 3105 3109 3112 3116 3118 3121 3123 3125 3128 3130 3133 3135 3137 3139 3141 3143 3145 3147 3150 3152 3153 3155 3157 3159 3161 3163 3165 3167 3170 3173 3175 3177 3179 3181 3183 3185 3187 3189 3191 3193 3195 3196 3198 3200 3201
3033 3034 3035 3032 3031 3033 3037 3040 3042 3046 3051 3054 3054 3056 3058 3059 3061 3063 3066 3069 3071 3073 3073 3074 3072 3070 3068 3064 3062 3066 3071 3073 3078 3082 3085 3088 3089 3091 3094 3096 3099 3104 3108 3111 3114 3117 3119 3121 3123 3126 3128 3130 3133 3135 3137 3139 3141 3142 3145 3147 3149 3151 3154 3156 3158 3159 3161 3163 3165 3168 3170 3172 3174 3176 3178 3180 3182 3185 3187 3189 3191 3192 3194 3196 3197 3199
3035 3033 3033 3031 3030 3031 3033 3035 3036 3039 3044 3047 3049 3052 3054 3056 3059 3063 3066 3068 3068 3069 3071 3072 3071 3069 3069 3068 3067 3069 3071 3073 3077 3080 3083 3085 3086 3088 3091 3094 3097 3101 3105 3110 3113 3115 3117 3119 3121 3124 3126 3129 3131 3133 3135 3137 3139 3140 3143 3145 3147 3150 3152 3154 3156 3157 3159 3161 3163 3166 3167 3169 3172 3173 3175 3177 3179 3182 3184 3186 3188 3190 3191 3193 3195 3197
3036 3033 3032 3032 3030 3029 3029 3029 3030 3032 3037 3042 3046 3049 3052 3055 3057 3060 3063 3065 3065 3066 3068 3070 3069 3069 3070 3070 3070 3070 3071 3074 3077 3079 3081 3083 3084 3085 3088 3092 3095 3098 3102 3107 3109 3112 3114 3117 3120 3123 3125 3128 3130 3132 3134 3135 3137 3139 3141 3142 3145 3147 3150 3152 3154 3156 3158 3160 3162 3164 3166 3167 3169 3171 3173 3175 3177 3180 3182 3184 3185 3187 3189 3191 3193 3194
3033 3032 3032 3031 3029 3027 3026 3026 3029 3032 3034 3038 3043 3047 3049 3053 3055 3057 3059 3060 3062 3064 3066 3067 3068 3068 3069 3069 3070 3072 3073 3075 3077 3077 3078 3081 3083 3085 3088 3092 3095 3097 3100 3103 3106 3108 3111 3115 3118 3121 3124 3127 3128 3130 3132 3133 3135 3137 3139 3140 3142 3145 3147 3149 3152 3154 3156 3158 3160 3162 3164 3166 3168 3170 3171 3173 3175 3177 3179 3181 3183 3185 3187 3189 3190 3192
3030 3030 3030 3029 3028 3027 3025 3024 3028 3030 3031 3033 3039 3043 3046 3049 3052 3053 3054 3057 3060 3062 3063 3064 3066 3067 3067 3069 3070 3071 3073 3075 3075 3076 3077 3079 3082 3085 3087 3091 3094 3097 3098 3099 3102 3105 3109 3113 3116 3119 3122 3125 3127 3128 3130 3132 3133 3135 3137 3139 3140 3142 3145 3147 3149 3151 3153 3156 3157 3159 3162 3164 3167 3168 3170 3172 3174 3175 3177 3179 3181 3182 3184 3186 3188 3189
3028 3027 3028 3026 3024 3023 3023 3023 3025 3028 3029 3031 3035 3039 3043 3045 3048 3050 3052 3055 3059 3060 3061 3063 3064 3065 3067 3068 3070 3071 3073 3074 3073 3074 3076 3078 3081 3084 3087 3089 3092 3095 3097 3098 3100 3104 3107 3111 3114 3117 3120 3122 3125 3126 3128 3130 3132 3133 3135 3136 3138 3140 3143 3145 3148 3149 3151 3153 3155 3157 3160 3163 3165 3167 3169 3170 3172 3173 3175 3177 3178 3180 3182 3183 3185 3187
3026 3025 3024 3022 3020 3020 3020 3020 3022 3026 3029 3030 3032 3036 3039 3042 3045 3048 3051 3055 3057 3059 3061 3062 3062 3064 3066 3067 3069 3072 3072 3072 3072 3074 3076 3078 3080 3083 3086 3088 3090 3093 3096 3098 3101 3104 3107 3110 3113 3116 3118 3120 3123 3125 3127 3128 3130 3131 3133 3135 3137 3138 3141 3143 3145 3147 3149 3151 3153 3156 3159 3161 3163 3165 3166 3168 3169 3171 3173 3174 3176 3178 3179 3181 3183 3184
3026 3024 3022 3021 3019 3019 3019 3021 3022 3025 3027 3028 3030 3034 3036 3040 3043 3047 3050 3052 3055 3057 3060 3061 3061 3063 3065 3067 3070 3072 3071 3070 3072 3074 3076 3079 3081 3082 3085 3087 3088 3091 3095 3099 3102 3104 3107 3110 3113 3115 3117 3119 3121 3123 3125 3127 3128 3130 3132 3133 3135 3137 3139 3141 3143 3145 3146 3148 3151 3154 3156 3158 3160 3162 3164 3165 3167 3169 3171 3172 3174 3175 3177 3178 3180 3182
3025 3023 3021 3020 3020 3019 3020 3022 3024 3025 3026 3026 3027 3030 3033 3036 3040 3043 3046 3049 3053 3055 3058 3059 3060 3061 3064 3066 3069 3071 3071 3069 3071 3074 3077 3079 3081 3082 3085 3087 3089 3092 3095 3099 3102 3104 3106 3109 3111 3114 3115 3117 3120 3122 3123 3125 3127 3128 3130 3132 3133 3135 3137 3139 3140 3142 3144 3146 3149 3151 3153 3156 3158 3159 3161 3163 3165 3167 3169 3170 3171 3173 3174 3176 3177 3179
3026 3025 3023 3022 3022 3020 3020 3023 3025 3025 3026 3025 3025 3028 3031 3034 3038 3041 3044 3048 3051 3053 3055 3058 3059 3060 3062 3064 3066 3069 3069 3069 3071 3074 3076 3078 3080 3082 3085 3088 3091 3094 3097 3099 3102 3104 3106 3108 3110 3112 3114 3116 3118 3120 3122 3124 3125 3127 3128 3130 3132 3133 3135 3136 3138 3140 3142 3144 3146 3148 3150 3152 3155 3156 3158 3160 3162 3164 3166 3168 3169 3170 3172 3173 3175 3177
3026 3027 3027 3027 3026 3022 3019 3021 3024 3026 3026 3024 3024 3027 3031 3035 3037 3038 3041 3047 3051 3052 3054 3057 3059 3060 3061 3062 3065 3067 3067 3068 3071 3073 3075 3078 3080 3082 3084 3088 3091 3095 3097 3099 3101 3103 3105 3107 3109 3111 3113 3115 3117 3118 3120 3122 3123 3125 3127 3128 3130 3131 3133 3134 3136 3137 3139 3141 3143 3145 3147 3149 3151 3153 3155 3158 3160 3162 3163 3165 3166 3168 3170 3171 3173 3174
3027 3028 3028 3027 3026 3023 3020 3022 3025 3027 3025 3023 3024 3028 3032 3036 3037 3035 3038 3045 3050 3052 3054 3056 3059 3061 3060 3061 3064 3066 3065 3066 3069 3073 3077 3079 3080 3082 3084 3086 3089 3093 3095 3098 3100 3102 3104 3106 3108 3109 3111 3113 3115 3116 3118 3120 3122 3123 3125 3126 3128 3129 3131 3132 3134 3135 3137 3138 3140 3142 3143 3145 3147 3150 3152 3154 3157 3158 3160 3162 3164 3166 3167 3169 3170 3172
3028 3029 3029 3027 3026 3025 3023 3025 3027 3026 3023 3022 3025 3029 3032 3034 3035 3033 3034 3037 3040 3043 3049 3052 3056 3060 3060 3059 3062 3064 3064 3065 3068 3072 3076 3078 3079 3082 3084 3086 3088 3091 3093 3095 3098 3100 3103 3105 3106 3107 3109 3111 3113 3115 3116 3118 3120 3121 3123 3124 3126 3127 3129 3130 3132 3133 3135 3136 3138 3139 3141 3142 3144 3146 3149 3151 3153 3154 3156 3159 3161 3163 3165 3166 3168 3169
3029 3030 3032 3029 3027 3027 3026 3026 3026 3024 3022 3022 3025 3030 3032 3031 3031 3030 3031 3034 3035 3037 3043 3049 3054 3057 3058 3057 3059 3062 3063 3064 3066 3071 3075 3077 3079 3081 3083 3086 3088 3090 3092 3095 3097 3099 3102 3103 3105 3106 3109 3110 3112 3114 3116 3117 3118 3120 3121 3122 3124 3125 3127 3128 3130 3131 3133 3134 3136 3137 3138 3140 3141 3143 3145 3147 3149 3151 3153 3155 3158 3160 3162 3163 3165 3166
3029 3031 3033 3033 3030 3029 3028 3027 3025 3024 3023 3021 3021 3024 3027 3028 3029 3028 3029 3033 3037 3039 3043 3047 3049 3052 3054 3056 3058 3060 3061 3061 3065 3070 3074 3077 3079 3080 3082 3085 3087 3089 3092 3094 3096 3098 3100 3102 3104 3106 3108 3110 3111 3113 3114 3116 3117 3119 3120 3121 3122 3124 3125 3126 3128 3129 3131 3132 3134 3135 3136 3137 3138 3140 3141 3143 3145 3147 3149 3152 3154 3156 3158 3160 3162 3163
3029 3031 3033 3034 3032 3030 3030 3029 3026 3024 3022 3019 3019 3020 3022 3025 3027 3026 3029 3035 3037 3039 3042 3043 3042 3044 3049 3054 3058 3059 3059 3061 3066 3070 3072 3074 3077 3080 3082 3084 3086 3088 3091 3093 3095 3097 3099 3101 3103 3105 3107 3109 3110 3111 3113 3114 3115 3117 3119 3120 3121 3122 3123 3125 3126 3128 3129 3130 3131 3132 3134 3135 3136 3137 3138 3140 3142 3144 3146 3148 3150 3152 3155 3156 3158 3160
3029 3030 3032 3033 3033 3032 3031 3030 3028 3025 3022 3020 3020 3020 3022 3024 3024 3025 3033 3041 3040 3038 3042 3042 3040 3042 3047 3051 3056 3057 3057 3060 3064 3067 3069 3071 3075 3078 3080 3083 3085 3087 3089 3092 3093 3095 3098 3100 3101 3103 3105 3106 3108 3110 3111 3112 3113 3115 3116 3118 3119 3120 3122 3123 3125 3126 3126 3127 3129 3130 3131 3132 3133 3134 3135 3137 3139 3140 3142 3144 3146 3148 3150 3152 3155 3156
3028 3029 3030 3031 3031 3032 3031 3030 3028 3027 3023 3020 3019 3019 3020 3022 3024 3028 3037 3042 3039 3038 3042 3042 3040 3042 3044 3047 3050 3052 3053 3057 3061 3063 3067 3070 3074 3077 3080 3082 3084 3086 3087 3089 3091 3093 3096 3098 3099 3100 3101 3103 3105 3107 3108 3109 3111 3112 3113 3115 3116 3118 3120 3121 3122 3123 3124 3125 3126 3127 3128 3129 3130 3131 3132 3134 3135 3137 3139 3140 3142 3144 3146 3148 3150 3152
3027 3028 3029 3029 3029 3030 3030 3029 3029 3028 3025 3021 3020 3019 3019 3021 3027 3033 3037 3039 3038 3038 3040 3040 3040 3042 3043 3045 3047 3049 3051 3055 3059 3062 3066 3070 3073 3075 3078 3080 3082 3084 3085 3087 3089 3092 3094 3095 3097 3098 3099 3100 3102 3103 3105 3106 3107 3109 3110 3111 3113 3115 3116 3118 3119 3120 3121 3122 3123 3124 3125 3126 3127 3128 3129 3131 3132 3133 3135 3137 3138 3140 3142 3144 3146 3148
3027 3028 3028 3028 3028 3029 3029 3029 3030 3030 3027 3023 3021 3020 3020 3023 3030 3035 3036 3036 3037 3038 3039 3040 3041 3041 3043 3045 3047 3050 3052 3055 3060 3064 3067 3069 3072 3074 3076 3079 3080 3082 3083 3086 3088 3090 3091 3092 3094 3095 3096 3097 3098 3099 3100 3102 3103 3105 3106 3107 3109 3111 3113 3114 3115 3117 3118 3119 3120 3121 3122 3123 3124 3125 3126 3127 3128 3130 3131 3133 3135 3136 3138 3140 3142 3144
3027 3028 3028 3027 3028 3029 3029 3029 3030 3031 3030 3028 3025 3025 3026 3029 3032 3035 3035 3035 3036 3037 3039 3040 3041 3041 3043 3045 3048 3050 3052 3056 3060 3063 3065 3068 3071 3073 3075 3077 3079 3080 3082 3085 3087 3088 3089 3090 3091 3092 3093 3094 3094 3095 3096 3098 3099 3101 3102 3104 3106 3107 3109 3110 3112 3113 3115 3116 3117 3118 3119 3119 3121 3122 3122 3123 3125 3126 3128 3129 3130 3132 3134 3136 3138 3139
3026 3027 3027 3027 3027 3028 3028 3029 3030 3029 3030 3031 3031 3029 3030 3031 3032 3033 3034 3034 3035 3036 3038 3040 3041 3043 3044 3046 3047 3048 3051 3055 3059 3061 3064 3067 3069 3071 3073 3075 3077 3078 3079 3082 3085 3086 3086 3087 3088 3089 3090 3092 3092 3092 3093 3094 3096 3097 3099 3101 3102 3103 3105 3106 3108 3109 3111 3112 3114 3114 3115 3116 3117 3118 3119 3120 3121 3122 3123 3125 3126 3128 3130 3132 3133 3135
3026 3026 3026 3026 3026 3027 3029 3030 3030 3029 3030 3032 3033 3033 3032 3031 3032 3033 3034 3034 3034 3035 3037 3039 3042 3043 3044 3045 3046 3048 3051 3054 3058 3060 3063 3066 3068 3069 3071 3073 3075 3076 3077 3079 3082 3083 3083 3083 3085 3086 3088 3089 3089 3089 3090 3091 3093 3094 3096 3098 3099 3100 3101 3102 3104 3105 3107 3108 3110 3111 3111 3112 3113 3114 3115 3116 3117 3118 3119 3121 3123 3124 3125 3127 3129 3130
3025 3025 3025 3025 3026 3027 3029 3029 3029 3029 3030 3032 3034 3035 3034 3032 3032 3033 3034 3034 3034 3035 3037 3039 3041 3042 3043 3044 3045 3047 3051 3054 3057 3060 3063 3064 3066 3069 3070 3072 3074 3074 3075 3077 3078 3079 3079 3080 3081 3083 3084 3086 3086 3087 3087 3088 3089 3091 3093 3094 3095 3096 3097 3098 3100 3101 3103 3105 3106 3107 3108 3109 3110 3111 3111 3112 3113 3114 3116 3117 3119 3120 3121 3123 3125 3126
3025 3025 3025 3024 3024 3024 3026 3028 3029 3029 3030 3033 3036 3036 3034 3032 3032 3033 3034 3034 3034 3035 3037 3039 3040 3042 3043 3044 3045 3047 3050 3054 3057 3059 3062 3063 3065 3068 3069 3071 3072 3073 3073 3075 3076 3076 3076 3077 3078 3079 3081 3082 3083 3084 3084 3085 3086 3087 3089 3090 3092 3093 3094 3095 3096 3097 3099 3101 3102 3104 3104 3105 3106 3107 3107 3108 3110 3111 3113 3114 3114 3116 3118 3119 3121 3122
3025 3025 3025 3024 3022 3022 3024 3028 3030 3029 3030 3033 3035 3033 3031 3031 3031 3032 3034 3035 3035 3036 3037 3038 3040 3042 3043 3044 3046 3048 3051 3053 3056 3058 3060 3062 3064 3066 3068 3069 3070 3071 3072 3073 3073 3073 3074 3074 3075 3076 3078 3079 3080 3081 3081 3082 3083 3084 3086 3087 3089 3090 3091 3091 3092 3094 3096 3097 3099 3100 3101 3101 3102 3103 3104 3105 3107 3108 3109 3110 3110 3112 3114 3115 3116 3118
3025 3024 3024 3024 3022 3021 3022 3026 3028 3027 3027 3029 3030 3029 3028 3030 3031 3031 3033 3035 3036 3037 3038 3039 3040 3042 3044 3045 3047 3048 3050 3053 3055 3056 3058 3061 3063 3065 3066 3067 3068 3069 3070 3070 3071 3071 3071 3072 3072 3073 3074 3075 3077 3077 3078 3080 3081 3082 3083 3084 3085 3086 3087 3088 3090 3091 3093 3094 3095 3096 3097 3098 3099 3100 3101 3102 3104 3104 3105 3106 3107 3108 3110 3111 3112 3114
3024 3024 3023 3023 3021 3019 3020 3022 3023 3022 3022 3024 3027 3028 3027 3029 3031 3032 3033 3034 3035 3037 3038 3039 3039 3041 3043 3045 3046 3047 3049 3051 3053 3054 3057 3059 3061 3063 3064 3065 3065 3066 3067 3067 3068 3068 3069 3069 3070 3070 3071 3072 3073 3074 3075 3077 3078 3079 3080 3081 3082 3083 3084 3085 3087 3088 3090 3091 3092 3093 3094 3095 3096 3097 3098 3099 3100 3101 3101 3102 3104 3105 3106 3107 3109 3110